ANA2159 RJAA-ROAH

Flight info

Callsign ANA2159
Flight time 2h 15m
Altitude 36000
Route SAMUS Y84 HCE Y86 YULIA Y293 TONAR Y525 IHEYA
Aircraft A320/M-SDE3FGHIRWY/LB1

Departure

Time 2026-05-05 17:37
Airport Narita International Airport (RJAA)

Arrival

Time 2026-05-05 19:53
Airport Naha International Airport (ROAH)
Time Latitude Longitude Altitude Speed Heading
2026-05-05 16:52 35.76316 140.38275 146 ft 0 kts 60°
2026-05-05 17:26 35.76313 140.38268 146 ft 3 kts 60°
2026-05-05 17:26 35.76305 140.38249 146 ft 3 kts 60°
2026-05-05 17:26 35.76293 140.38235 146 ft 3 kts
2026-05-05 17:27 35.76276 140.38232 146 ft 2 kts 353°
2026-05-05 17:27 35.76270 140.38232 146 ft 0 kts 329°
2026-05-05 17:31 35.76293 140.38215 146 ft 10 kts 328°
2026-05-05 17:31 35.76385 140.38144 146 ft 15 kts 327°
2026-05-05 17:31 35.76402 140.38129 146 ft 4 kts 326°
2026-05-05 17:32 35.76438 140.38081 146 ft 11 kts 298°
2026-05-05 17:32 35.76435 140.37971 145 ft 16 kts 237°
2026-05-05 17:32 35.76405 140.37856 144 ft 16 kts 290°
2026-05-05 17:32 35.76508 140.37754 144 ft 22 kts 328°
2026-05-05 17:33 35.76650 140.37654 144 ft 26 kts 330°
2026-05-05 17:33 35.76822 140.37531 144 ft 25 kts 330°
2026-05-05 17:33 35.76987 140.37411 143 ft 30 kts 330°
2026-05-05 17:33 35.77171 140.37284 143 ft 28 kts 328°
2026-05-05 17:34 35.77341 140.37154 143 ft 31 kts 330°
2026-05-05 17:34 35.77500 140.37030 143 ft 17 kts 305°
2026-05-05 17:34 35.77483 140.36961 140 ft 13 kts 248°
2026-05-05 17:34 35.77440 140.36873 136 ft 11 kts 225°
2026-05-05 17:35 35.77350 140.36895 134 ft 17 kts 145°
2026-05-05 17:35 35.77315 140.36922 134 ft 0 kts 149°
2026-05-05 17:36 35.77251 140.36962 134 ft 38 kts 151°
2026-05-05 17:36 35.76814 140.37281 137 ft 105 kts 149°
2026-05-05 17:37 35.76029 140.37850 139 ft 155 kts 150°
2026-05-05 17:37 35.75358 140.38322 178 ft 179 kts 151°
2026-05-05 17:37 35.73810 140.39369 631 ft 199 kts 152°
2026-05-05 17:37 35.72542 140.40190 1102 ft 210 kts 153°
2026-05-05 17:38 35.71200 140.41027 1727 ft 223 kts 154°
2026-05-05 17:38 35.69765 140.41890 2408 ft 235 kts 155°
2026-05-05 17:38 35.68258 140.42764 3157 ft 243 kts 155°
2026-05-05 17:38 35.66701 140.43635 3939 ft 249 kts 156°
2026-05-05 17:39 35.65138 140.44480 4727 ft 253 kts 157°
2026-05-05 17:39 35.63469 140.45357 5568 ft 257 kts 158°
2026-05-05 17:39 35.61806 140.46206 6410 ft 260 kts 158°
2026-05-05 17:39 35.60126 140.47039 7254 ft 261 kts 159°
2026-05-05 17:40 35.58430 140.47913 7936 ft 272 kts 150°
2026-05-05 17:40 35.56916 140.49381 8517 ft 282 kts 137°
2026-05-05 17:40 35.55473 140.51005 9275 ft 286 kts 137°
2026-05-05 17:40 35.53995 140.52669 10025 ft 291 kts 137°
2026-05-05 17:41 35.52441 140.54419 10320 ft 314 kts 137°
2026-05-05 17:41 35.50737 140.56211 10490 ft 329 kts 143°
2026-05-05 17:41 35.48765 140.57833 10642 ft 352 kts 149°
2026-05-05 17:41 35.46594 140.59365 11030 ft 365 kts 151°
2026-05-05 17:42 35.44380 140.60931 11655 ft 370 kts 146°
2026-05-05 17:42 35.42367 140.62928 12307 ft 374 kts 135°
2026-05-05 17:42 35.40728 140.65422 12951 ft 378 kts 124°
2026-05-05 17:42 35.39246 140.68098 13593 ft 381 kts 124°
2026-05-05 17:43 35.37762 140.70810 14200 ft 385 kts 124°
2026-05-05 17:43 35.36265 140.73542 14794 ft 388 kts 124°
2026-05-05 17:43 35.34749 140.76295 15374 ft 391 kts 124°
2026-05-05 17:43 35.33231 140.79033 15905 ft 395 kts 124°
2026-05-05 17:44 35.31677 140.81822 16451 ft 398 kts 124°
2026-05-05 17:44 35.30109 140.84625 16956 ft 401 kts 124°
2026-05-05 17:44 35.28524 140.87450 17476 ft 404 kts 124°
2026-05-05 17:44 35.26931 140.90289 17975 ft 407 kts 124°
2026-05-05 17:45 35.25324 140.93160 18471 ft 410 kts 124°
2026-05-05 17:45 35.23645 140.95986 18930 ft 412 kts 130°
2026-05-05 17:45 35.21595 140.98447 19383 ft 415 kts 141°
2026-05-05 17:45 35.19182 141.00403 19832 ft 417 kts 153°
2026-05-05 17:46 35.16500 141.01762 20269 ft 420 kts 163°
2026-05-05 17:46 35.13635 141.02490 20698 ft 422 kts 174°
2026-05-05 17:46 35.10700 141.02738 21114 ft 424 kts 176°
2026-05-05 17:46 35.07745 141.02967 21531 ft 427 kts 176°
2026-05-05 17:47 35.04770 141.03202 21935 ft 429 kts 176°
2026-05-05 17:47 35.01782 141.03439 22321 ft 432 kts 176°
2026-05-05 17:47 34.98776 141.03677 22695 ft 434 kts 176°
2026-05-05 17:47 34.95789 141.03913 23052 ft 437 kts 176°
2026-05-05 17:48 34.92742 141.04151 23407 ft 439 kts 176°
2026-05-05 17:48 34.89682 141.04388 23759 ft 441 kts 176°
2026-05-05 17:48 34.86606 141.04624 24107 ft 443 kts 176°
2026-05-05 17:48 34.83520 141.04862 24448 ft 446 kts 176°
2026-05-05 17:49 34.80410 141.05105 24788 ft 448 kts 176°
2026-05-05 17:49 34.77322 141.05348 25101 ft 450 kts 176°
2026-05-05 17:49 34.74189 141.05595 25411 ft 452 kts 176°
2026-05-05 17:49 34.71030 141.05842 25713 ft 454 kts 176°
2026-05-05 17:50 34.67870 141.06086 26004 ft 456 kts 176°
2026-05-05 17:50 34.64731 141.06302 26280 ft 458 kts 179°
2026-05-05 17:50 34.62581 141.06198 26459 ft 459 kts 186°
2026-05-05 17:50 34.59444 141.05487 26723 ft 460 kts 196°
2026-05-05 17:51 34.55510 141.03541 27062 ft 462 kts 209°
2026-05-05 17:51 34.53668 141.02144 27233 ft 463 kts 216°
2026-05-05 17:51 34.51197 140.99626 27485 ft 465 kts 224°
2026-05-05 17:51 34.48123 140.96023 27956 ft 463 kts 224°
2026-05-05 17:52 34.46556 140.94191 28203 ft 463 kts 224°
2026-05-05 17:52 34.44270 140.91520 28552 ft 462 kts 224°
2026-05-05 17:52 34.41953 140.88815 28899 ft 461 kts 224°
2026-05-05 17:52 34.39642 140.86121 29247 ft 461 kts 224°
2026-05-05 17:53 34.37333 140.83428 29584 ft 460 kts 224°
2026-05-05 17:53 34.35030 140.80743 29924 ft 459 kts 224°
2026-05-05 17:53 34.32725 140.78058 30268 ft 459 kts 224°
2026-05-05 17:53 34.30428 140.75390 30594 ft 458 kts 224°
2026-05-05 17:54 34.28131 140.72727 30925 ft 457 kts 224°
2026-05-05 17:54 34.25833 140.70064 31260 ft 456 kts 224°
2026-05-05 17:54 34.23542 140.67412 31584 ft 456 kts 224°
2026-05-05 17:54 34.21277 140.64795 31891 ft 455 kts 224°
2026-05-05 17:55 34.18958 140.62115 32213 ft 454 kts 224°
2026-05-05 17:55 34.16707 140.59513 32508 ft 454 kts 224°
2026-05-05 17:55 34.14429 140.56878 32804 ft 453 kts 224°
2026-05-05 17:55 34.12149 140.54242 33095 ft 453 kts 224°
2026-05-05 17:56 34.09877 140.51619 33387 ft 452 kts 224°
2026-05-05 17:56 34.07602 140.49000 33683 ft 452 kts 224°
2026-05-05 17:56 34.05331 140.46393 33974 ft 451 kts 224°
2026-05-05 17:56 34.03060 140.43786 34259 ft 451 kts 224°
2026-05-05 17:57 34.00812 140.41156 34539 ft 450 kts 228°
2026-05-05 17:57 33.99003 140.38102 34798 ft 448 kts 243°
2026-05-05 17:57 33.97631 140.34733 35044 ft 448 kts 244°
2026-05-05 17:57 33.96281 140.31346 35290 ft 448 kts 244°
2026-05-05 17:58 33.94942 140.27970 35530 ft 447 kts 244°
2026-05-05 17:58 33.93599 140.24584 35760 ft 447 kts 244°
2026-05-05 17:58 33.92262 140.21212 35955 ft 447 kts 244°
2026-05-05 17:59 33.89563 140.14423 36008 ft 450 kts 244°
2026-05-05 17:59 33.86842 140.07630 36008 ft 451 kts 244°
2026-05-05 18:00 33.84116 140.00839 36008 ft 451 kts 244°
2026-05-05 18:00 33.81395 139.94048 36008 ft 451 kts 244°
2026-05-05 18:01 33.78667 139.87258 36009 ft 451 kts 244°
2026-05-05 18:01 33.75955 139.80521 36010 ft 451 kts 244°
2026-05-05 18:02 33.73220 139.73737 36007 ft 451 kts 244°
2026-05-05 18:02 33.70473 139.66961 36010 ft 451 kts 244°
2026-05-05 18:03 33.67719 139.60178 36014 ft 452 kts 244°
2026-05-05 18:03 33.64966 139.53398 36017 ft 452 kts 244°
2026-05-05 18:04 33.62219 139.46665 36018 ft 451 kts 244°
2026-05-05 18:04 33.59451 139.39890 36017 ft 451 kts 244°
2026-05-05 18:05 33.56689 139.33124 36017 ft 451 kts 244°
2026-05-05 18:05 33.53926 139.26365 36017 ft 451 kts 244°
2026-05-05 18:06 33.51170 139.19654 36016 ft 451 kts 244°
2026-05-05 18:06 33.48389 139.12903 36013 ft 451 kts 244°
2026-05-05 18:07 33.45609 139.06168 36012 ft 451 kts 244°
2026-05-05 18:07 33.42833 138.99426 36013 ft 451 kts 244°
2026-05-05 18:08 33.40052 138.92685 36015 ft 451 kts 244°
2026-05-05 18:08 33.37261 138.85949 36017 ft 452 kts 244°
2026-05-05 18:09 33.34483 138.79253 36017 ft 451 kts 244°
2026-05-05 18:09 33.31687 138.72524 36017 ft 451 kts 244°
2026-05-05 18:10 33.28888 138.65809 36017 ft 451 kts 243°
2026-05-05 18:10 33.26074 138.59088 36016 ft 451 kts 243°
2026-05-05 18:11 33.23266 138.52384 36016 ft 451 kts 243°
2026-05-05 18:11 33.20459 138.45674 36015 ft 451 kts 243°
2026-05-05 18:12 33.17670 138.39018 36014 ft 451 kts 243°
2026-05-05 18:12 33.14860 138.32334 36011 ft 451 kts 243°
2026-05-05 18:13 33.12037 138.25655 36011 ft 450 kts 243°
2026-05-05 18:13 33.09207 138.18968 36005 ft 450 kts 243°
2026-05-05 18:14 33.06382 138.12293 36005 ft 450 kts 243°
2026-05-05 18:14 33.03580 138.05674 35999 ft 450 kts 243°
2026-05-05 18:15 33.00751 137.99013 36001 ft 450 kts 243°
2026-05-05 18:15 32.97905 137.92360 35999 ft 450 kts 243°
2026-05-05 18:16 32.95069 137.85708 35998 ft 450 kts 243°
2026-05-05 18:16 32.92234 137.79038 36005 ft 451 kts 243°
2026-05-05 18:17 32.89407 137.72435 36001 ft 451 kts 243°
2026-05-05 18:17 32.86550 137.65793 36002 ft 451 kts 243°
2026-05-05 18:18 32.83694 137.59149 36004 ft 451 kts 243°
2026-05-05 18:18 32.80839 137.52503 36005 ft 451 kts 243°
2026-05-05 18:19 32.77998 137.45909 36004 ft 451 kts 243°
2026-05-05 18:19 32.75131 137.39262 36010 ft 451 kts 243°
2026-05-05 18:20 32.72272 137.32656 36007 ft 451 kts 243°
2026-05-05 18:20 32.69382 137.26017 36009 ft 451 kts 243°
2026-05-05 18:21 32.66501 137.19389 36013 ft 451 kts 243°
2026-05-05 18:21 32.63620 137.12757 36015 ft 452 kts 243°
2026-05-05 18:22 32.60751 137.06154 36016 ft 451 kts 243°
2026-05-05 18:22 32.57860 136.99544 36016 ft 451 kts 243°
2026-05-05 18:23 32.54966 136.92934 36017 ft 452 kts 243°
2026-05-05 18:23 32.52072 136.86334 36017 ft 451 kts 243°
2026-05-05 18:24 32.49172 136.79725 36016 ft 451 kts 243°
2026-05-05 18:24 32.46272 136.73140 36015 ft 451 kts 242°
2026-05-05 18:25 32.43377 136.66585 36015 ft 451 kts 242°
2026-05-05 18:25 32.40464 136.59986 36017 ft 452 kts 242°
2026-05-05 18:26 32.37564 136.53430 36018 ft 452 kts 242°
2026-05-05 18:26 32.34643 136.46833 36018 ft 452 kts 242°
2026-05-05 18:27 32.31720 136.40254 36017 ft 451 kts 242°
2026-05-05 18:27 32.28798 136.33685 36015 ft 451 kts 242°
2026-05-05 18:28 32.24427 136.23880 36011 ft 451 kts 242°
2026-05-05 18:28 32.21501 136.17332 36009 ft 451 kts 242°
2026-05-05 18:29 32.18566 136.10777 36009 ft 451 kts 242°
2026-05-05 18:29 32.15626 136.04239 36011 ft 451 kts 242°
2026-05-05 18:30 32.12684 135.97690 36010 ft 451 kts 242°
2026-05-05 18:30 32.09753 135.91149 36009 ft 451 kts 242°
2026-05-05 18:31 32.06802 135.84616 36008 ft 451 kts 242°
2026-05-05 18:31 32.03866 135.78140 36005 ft 451 kts 242°
2026-05-05 18:32 32.00919 135.71617 36003 ft 451 kts 242°
2026-05-05 18:32 31.97970 135.65100 36004 ft 451 kts 242°
2026-05-05 18:33 31.95006 135.58582 36007 ft 451 kts 242°
2026-05-05 18:33 31.92038 135.52072 36010 ft 451 kts 242°
2026-05-05 18:34 31.89070 135.45551 36009 ft 451 kts 242°
2026-05-05 18:34 31.86102 135.39048 36009 ft 451 kts 242°
2026-05-05 18:35 31.83123 135.32542 36010 ft 451 kts 242°
2026-05-05 18:35 31.80160 135.26082 36011 ft 451 kts 242°
2026-05-05 18:36 31.77179 135.19581 36012 ft 451 kts 242°
2026-05-05 18:36 31.74189 135.13075 36013 ft 451 kts 242°
2026-05-05 18:37 31.71170 135.06599 36013 ft 451 kts 240°
2026-05-05 18:37 31.68412 135.01394 36013 ft 452 kts 237°
2026-05-05 18:38 31.64878 134.95293 36014 ft 452 kts 236°
2026-05-05 18:38 31.60779 134.88199 36015 ft 452 kts 236°
2026-05-05 18:39 31.57884 134.83045 36015 ft 452 kts 237°
2026-05-05 18:39 31.54466 134.76912 36015 ft 452 kts 237°
2026-05-05 18:40 31.51008 134.70749 36015 ft 452 kts 237°
2026-05-05 18:40 31.47548 134.64605 36016 ft 452 kts 237°
2026-05-05 18:41 31.44074 134.58461 36016 ft 452 kts 236°
2026-05-05 18:41 31.40621 134.52373 36016 ft 452 kts 237°
2026-05-05 18:42 31.37150 134.46237 36016 ft 452 kts 237°
2026-05-05 18:42 31.33677 134.40102 36017 ft 452 kts 237°
2026-05-05 18:43 31.30192 134.33976 36017 ft 452 kts 236°
2026-05-05 18:43 31.26706 134.27857 36017 ft 452 kts 236°
2026-05-05 18:44 31.23220 134.21745 36017 ft 452 kts 236°
2026-05-05 18:44 31.19732 134.15633 36017 ft 452 kts 236°
2026-05-05 18:45 31.16240 134.09531 36018 ft 452 kts 236°
2026-05-05 18:45 31.12738 134.03423 36018 ft 452 kts 236°
2026-05-05 18:46 31.09248 133.97319 36019 ft 452 kts 236°
2026-05-05 18:46 31.05750 133.91220 36019 ft 452 kts 236°
2026-05-05 18:47 31.02269 133.85172 36019 ft 452 kts 236°
2026-05-05 18:47 30.98760 133.79091 36019 ft 452 kts 236°
2026-05-05 18:48 30.95249 133.73010 36019 ft 452 kts 236°
2026-05-05 18:48 30.91729 133.66933 36020 ft 452 kts 236°
2026-05-05 18:49 30.88212 133.60854 36020 ft 452 kts 236°
2026-05-05 18:49 30.84693 133.54783 36019 ft 452 kts 236°
2026-05-05 18:50 30.81175 133.48715 36020 ft 452 kts 236°
2026-05-05 18:50 30.77657 133.42651 36021 ft 452 kts 236°
2026-05-05 18:51 30.74127 133.36588 36021 ft 452 kts 236°
2026-05-05 18:51 30.70622 133.30574 36021 ft 452 kts 236°
2026-05-05 18:52 30.67085 133.24524 36021 ft 452 kts 236°
2026-05-05 18:52 30.63556 133.18498 36021 ft 452 kts 236°
2026-05-05 18:53 30.60016 133.12453 36022 ft 452 kts 236°
2026-05-05 18:53 30.56474 133.06409 36021 ft 452 kts 236°
2026-05-05 18:54 30.52931 133.00367 36022 ft 452 kts 236°
2026-05-05 18:54 30.49383 132.94339 36022 ft 452 kts 236°
2026-05-05 18:55 30.45828 132.88318 36023 ft 452 kts 236°
2026-05-05 18:55 30.42300 132.82335 36022 ft 452 kts 236°
2026-05-05 18:56 30.38746 132.76321 36021 ft 452 kts 236°
2026-05-05 18:56 30.35179 132.70294 36021 ft 452 kts 236°
2026-05-05 18:57 30.31609 132.64277 36021 ft 452 kts 236°
2026-05-05 18:57 30.28047 132.58273 36022 ft 452 kts 236°
2026-05-05 18:58 30.24507 132.52314 36022 ft 452 kts 236°
2026-05-05 18:58 30.20940 132.46324 36021 ft 452 kts 236°
2026-05-05 18:59 30.17371 132.40342 36021 ft 452 kts 236°
2026-05-05 18:59 30.13793 132.34354 36020 ft 452 kts 235°
2026-05-05 19:00 30.10209 132.28377 36020 ft 452 kts 235°
2026-05-05 19:00 30.06629 132.22396 36020 ft 452 kts 236°
2026-05-05 19:01 30.03053 132.16425 36020 ft 452 kts 235°
2026-05-05 19:01 29.99465 132.10456 36019 ft 452 kts 235°
2026-05-05 19:02 29.95899 132.04518 36020 ft 452 kts 235°
2026-05-05 19:02 29.92313 131.98565 36019 ft 452 kts 235°
2026-05-05 19:03 29.88715 131.92607 36019 ft 452 kts 235°
2026-05-05 19:03 29.85117 131.86661 36018 ft 452 kts 235°
2026-05-05 19:04 29.81487 131.80753 36018 ft 452 kts 231°
2026-05-05 19:04 29.77444 131.75249 36018 ft 452 kts 230°
2026-05-05 19:05 29.73358 131.69731 36017 ft 452 kts 230°
2026-05-05 19:05 29.69274 131.64213 36017 ft 452 kts 230°
2026-05-05 19:06 29.65194 131.58698 36017 ft 452 kts 230°
2026-05-05 19:06 29.61137 131.53237 36017 ft 452 kts 230°
2026-05-05 19:07 29.57036 131.47734 36017 ft 452 kts 230°
2026-05-05 19:07 29.52947 131.42238 36016 ft 452 kts 230°
2026-05-05 19:08 29.48859 131.36739 36016 ft 452 kts 230°
2026-05-05 19:08 29.44779 131.31261 36016 ft 452 kts 230°
2026-05-05 19:09 29.40680 131.25779 36016 ft 452 kts 229°
2026-05-05 19:09 29.36586 131.20312 36016 ft 452 kts 229°
2026-05-05 19:10 29.32488 131.14837 36016 ft 452 kts 230°
2026-05-05 19:10 29.28415 131.09397 36015 ft 452 kts 229°
2026-05-05 19:11 29.24310 131.03934 36015 ft 452 kts 229°
2026-05-05 19:11 29.20197 130.98473 36015 ft 452 kts 229°
2026-05-05 19:12 29.16091 130.93024 36014 ft 452 kts 229°
2026-05-05 19:12 29.11979 130.87576 36014 ft 452 kts 229°
2026-05-05 19:13 29.07876 130.82131 36014 ft 452 kts 229°
2026-05-05 19:13 29.03792 130.76731 36014 ft 452 kts 229°
2026-05-05 19:14 28.99669 130.71298 36013 ft 452 kts 229°
2026-05-05 19:14 28.95548 130.65885 36013 ft 452 kts 229°
2026-05-05 19:15 28.91431 130.60455 36013 ft 452 kts 229°
2026-05-05 19:15 28.87310 130.55031 36014 ft 452 kts 229°
2026-05-05 19:16 28.83214 130.49640 36016 ft 452 kts 229°
2026-05-05 19:16 28.79084 130.44217 36017 ft 452 kts 229°
2026-05-05 19:17 28.74955 130.38793 36019 ft 452 kts 229°
2026-05-05 19:17 28.70817 130.33381 36020 ft 453 kts 229°
2026-05-05 19:18 28.66675 130.27970 36020 ft 452 kts 229°
2026-05-05 19:18 28.62560 130.22598 36020 ft 452 kts 229°
2026-05-05 19:19 28.58418 130.17198 36019 ft 452 kts 229°
2026-05-05 19:19 28.54270 130.11807 36018 ft 452 kts 229°
2026-05-05 19:20 28.50128 130.06424 36015 ft 452 kts 229°
2026-05-05 19:20 28.45984 130.01038 36013 ft 452 kts 229°
2026-05-05 19:21 28.41869 129.95693 36012 ft 452 kts 229°
2026-05-05 19:21 28.37726 129.90329 36012 ft 452 kts 229°
2026-05-05 19:22 28.33569 129.84964 36010 ft 452 kts 229°
2026-05-05 19:22 28.29441 129.79632 36009 ft 452 kts 229°
2026-05-05 19:23 28.25288 129.74275 36011 ft 452 kts 229°
2026-05-05 19:23 28.21126 129.68915 36009 ft 452 kts 229°
2026-05-05 19:24 28.16970 129.63562 36008 ft 452 kts 229°
2026-05-05 19:24 28.12839 129.58248 36008 ft 452 kts 229°
2026-05-05 19:25 28.08680 129.52910 36008 ft 452 kts 229°
2026-05-05 19:25 28.05216 129.48478 36006 ft 452 kts 229°
2026-05-05 19:26 28.01050 129.43148 36005 ft 452 kts 229°
2026-05-05 19:26 27.96881 129.37823 36007 ft 452 kts 229°
2026-05-05 19:27 27.92713 129.32504 36003 ft 451 kts 229°
2026-05-05 19:27 27.88576 129.27216 36002 ft 451 kts 229°
2026-05-05 19:28 27.84409 129.21895 36001 ft 451 kts 229°
2026-05-05 19:28 27.80235 129.16577 36000 ft 451 kts 229°
2026-05-05 19:29 27.76054 129.11268 35999 ft 451 kts 228°
2026-05-05 19:29 27.71877 129.05979 35998 ft 451 kts 228°
2026-05-05 19:30 27.67729 129.00727 36001 ft 451 kts 229°
2026-05-05 19:30 27.63558 128.95442 35997 ft 451 kts 228°
2026-05-05 19:31 27.59378 128.90157 36002 ft 451 kts 228°
2026-05-05 19:31 27.55192 128.84885 35994 ft 451 kts 228°
2026-05-05 19:32 27.51001 128.79608 35998 ft 451 kts 228°
2026-05-05 19:32 27.46845 128.74368 35995 ft 451 kts 228°
2026-05-05 19:33 27.42819 128.68949 35994 ft 451 kts 237°
2026-05-05 19:33 27.39607 128.62895 35995 ft 451 kts 239°
2026-05-05 19:34 27.36414 128.56817 35995 ft 451 kts 239°
2026-05-05 19:35 27.31603 128.47702 35998 ft 452 kts 239°
2026-05-05 19:35 27.28397 128.41625 36000 ft 451 kts 239°
2026-05-05 19:36 27.25194 128.35552 36000 ft 451 kts 239°
2026-05-05 19:36 27.21988 128.29486 36000 ft 452 kts 239°
2026-05-05 19:37 27.18771 128.23423 36002 ft 452 kts 239°
2026-05-05 19:37 27.15570 128.17401 36001 ft 452 kts 239°
2026-05-05 19:38 27.12352 128.11337 36003 ft 452 kts 239°
2026-05-05 19:38 27.09132 128.05287 36005 ft 452 kts 239°
2026-05-05 19:39 27.05905 127.99228 36008 ft 452 kts 238°
2026-05-05 19:39 27.04041 127.96389 36005 ft 452 kts 227°
2026-05-05 19:39 27.01719 127.94023 36005 ft 451 kts 216°
2026-05-05 19:39 26.99026 127.92223 36001 ft 451 kts 204°
2026-05-05 19:40 26.96075 127.91055 36004 ft 451 kts 193°
2026-05-05 19:40 26.92977 127.90558 36005 ft 450 kts 182°
2026-05-05 19:40 26.89842 127.90609 36009 ft 450 kts 178°
2026-05-05 19:41 26.83576 127.90803 36004 ft 451 kts 179°
2026-05-05 19:41 26.77290 127.90987 35420 ft 456 kts 179°
2026-05-05 19:41 26.74083 127.91080 34267 ft 466 kts 179°
2026-05-05 19:42 26.70819 127.91177 33246 ft 471 kts 179°
2026-05-05 19:42 26.67529 127.91274 32268 ft 474 kts 179°
2026-05-05 19:42 26.64232 127.91370 31107 ft 471 kts 179°
2026-05-05 19:42 26.60942 127.91465 29345 ft 475 kts 179°
2026-05-05 19:43 26.57677 127.91582 27600 ft 464 kts 178°
2026-05-05 19:43 26.54445 127.91699 25563 ft 467 kts 179°
2026-05-05 19:43 26.51208 127.91792 23656 ft 472 kts 179°
2026-05-05 19:43 26.47968 127.91875 22283 ft 461 kts 179°
2026-05-05 19:44 26.44800 127.91954 20911 ft 451 kts 179°
2026-05-05 19:44 26.41691 127.92033 19569 ft 442 kts 179°
2026-05-05 19:44 26.38684 127.91661 18269 ft 432 kts 197°
2026-05-05 19:44 26.35926 127.90436 16935 ft 423 kts 204°
2026-05-05 19:45 26.33258 127.89108 15621 ft 416 kts 205°
2026-05-05 19:45 26.30651 127.87770 14328 ft 409 kts 205°
2026-05-05 19:45 26.28097 127.86442 13060 ft 401 kts 205°
2026-05-05 19:45 26.25586 127.85135 11782 ft 394 kts 205°
2026-05-05 19:46 26.23122 127.83858 10501 ft 387 kts 205°
2026-05-05 19:46 26.20704 127.82614 9221 ft 380 kts 205°
2026-05-05 19:46 26.18323 127.81395 7939 ft 373 kts 205°
2026-05-05 19:46 26.15987 127.80206 6791 ft 364 kts 205°
2026-05-05 19:47 26.13805 127.79100 6494 ft 332 kts 205°
2026-05-05 19:47 26.11802 127.78085 6360 ft 301 kts 205°
2026-05-05 19:47 26.09979 127.77159 6243 ft 275 kts 205°
2026-05-05 19:47 26.08312 127.76311 6098 ft 252 kts 205°
2026-05-05 19:48 26.06860 127.75382 5982 ft 233 kts 220°
2026-05-05 19:48 26.05790 127.74065 5871 ft 228 kts 238°
2026-05-05 19:48 26.05146 127.72465 5666 ft 228 kts 255°
2026-05-05 19:48 26.04951 127.70687 5099 ft 237 kts 268°
2026-05-05 19:49 26.04895 127.68812 4486 ft 248 kts 268°
2026-05-05 19:49 26.04880 127.67528 4057 ft 254 kts 275°
2026-05-05 19:49 26.05947 127.65243 3285 ft 254 kts 325°
2026-05-05 19:49 26.07519 127.64617 3144 ft 232 kts 353°
2026-05-05 19:50 26.09061 127.64558 3015 ft 213 kts
2026-05-05 19:50 26.10485 127.64624 2879 ft 197 kts
2026-05-05 19:50 26.11818 127.64680 2742 ft 185 kts
2026-05-05 19:50 26.13053 127.64703 2518 ft 173 kts 360°
2026-05-05 19:51 26.14243 127.64700 2155 ft 170 kts 359°
2026-05-05 19:51 26.15423 127.64681 1731 ft 170 kts 358°
2026-05-05 19:51 26.16666 127.64646 926 ft 187 kts 358°
2026-05-05 19:51 26.17987 127.64604 222 ft 192 kts
2026-05-05 19:52 26.19118 127.64610 18 ft 117 kts
2026-05-05 19:52 26.19840 127.64584 15 ft 99 kts 357°
2026-05-05 19:52 26.20528 127.64537 19 ft 107 kts 356°
2026-05-05 19:52 26.21195 127.64467 7 ft 62 kts 354°
2026-05-05 19:53 26.21313 127.64452 7 ft 5 kts 354°
2026-05-05 19:53 26.21351 127.64452 7 ft 5 kts